Wind_Speed
42 41 38 40 44 46 47 45 44 44 45 45 46 45 44 43 43 45 46 46 47 46 45 46 46 45 44 45 46 47 47 48 50 52 53 52 51 51 52 52 52 53 53 53 53 53 53 53 52 51 51 50 50 50 50 50 50 51 52 52 52 53 53 53 53 53 54 54 53 52 52 52 52 52 52 52 52 51 51 50 50 49 49 49 49 49
43 42 41 42 44 47 48 47 46 46 47 47 48 48 48 48 48 48 48 47 48 48 47 48 48 47 48 49 50 50 51 51 51 51 53 55 55 55 54 54 55 55 55 55 55 56 56 56 56 55 54 54 54 54 54 53 52 53 53 53 54 54 54 55 55 55 55 55 55 55 55 55 54 54 54 54 54 54 53 53 53 53 54 53 52 52
46 46 46 44 45 48 49 49 48 48 49 49 49 51 51 52 53 52 52 52 51 49 50 50 48 48 50 51 52 54 55 55 53 52 54 56 57 57 57 57 58 58 58 59 59 60 59 59 59 58 57 57 58 58 58 57 56 55 55 55 56 56 56 56 56 57 56 56 56 56 57 57 57 57 57 57 57 57 57 57 56 57 58 58 57 56
51 51 52 50 50 53 52 52 53 52 52 52 52 54 55 57 58 56 57 57 56 55 54 54 52 51 53 53 55 57 58 57 54 55 57 57 58 59 60 60 61 61 62 63 63 63 63 63 62 62 61 61 61 61 61 61 60 60 60 60 59 59 59 59 58 58 58 58 58 58 58 59 59 59 60 59 60 60 60 60 60 60 61 61 61 60
57 57 58 57 56 57 57 57 58 57 56 56 57 57 59 61 62 61 62 62 61 61 60 59 57 57 58 59 60 62 62 58 56 57 59 59 59 61 62 64 65 64 65 65 66 66 66 66 66 65 65 65 64 65 65 65 64 64 64 64 64 63 63 62 62 61 61 61 60 60 60 60 61 62 62 62 62 62 63 62 63 63 63 63 64 63
61 62 64 64 62 62 62 63 64 63 61 61 62 62 63 64 65 66 67 66 65 64 65 65 64 62 63 65 67 69 67 62 60 62 62 61 62 63 64 66 68 68 67 68 68 68 69 70 70 70 69 69 68 68 69 69 68 67 67 67 67 67 67 66 66 65 65 64 62 62 61 62 63 64 65 65 65 64 64 64 64 64 64 65 65 65
65 67 68 68 67 67 67 68 70 69 67 66 66 68 68 68 69 70 71 70 68 67 67 67 67 65 64 66 69 71 71 67 66 68 67 66 67 67 68 69 71 71 71 72 72 72 74 75 75 75 74 74 74 74 74 73 72 70 70 69 69 69 69 69 69 69 68 68 67 66 65 65 65 66 67 68 68 68 68 68 68 67 67 67 67 67
69 72 72 72 72 72 70 70 71 71 70 68 69 71 71 72 72 73 73 73 71 68 64 64 66 64 59 60 64 68 69 65 65 69 69 70 72 72 73 73 75 75 75 76 77 76 77 78 77 76 76 76 76 76 76 76 76 75 73 72 71 70 70 71 72 72 72 72 72 71 71 70 69 69 69 70 71 71 71 71 71 71 70 70 70 69
74 75 76 75 72 69 66 65 65 66 66 66 67 69 69 71 71 72 72 71 71 67 61 63 67 65 58 58 61 64 66 63 62 65 65 66 71 73 74 75 74 75 74 75 77 76 76 77 77 75 74 74 74 74 74 75 76 77 77 77 76 74 73 73 73 74 75 75 75 75 75 76 75 75 74 73 73 73 72 73 73 73 73 73 73 72
75 73 72 69 67 65 65 66 67 68 69 69 69 70 71 72 73 75 74 73 74 70 66 70 73 71 65 63 65 66 66 64 64 66 65 66 70 71 72 74 73 73 72 72 74 76 75 75 76 77 78 78 78 78 77 76 76 76 76 77 77 78 78 77 77 76 77 77 78 78 77 78 78 78 79 79 78 77 77 76 76 76 76 76 76 75
69 67 67 66 67 70 71 73 74 75 76 76 77 77 78 79 81 82 82 82 81 77 76 79 81 78 73 70 71 72 71 69 68 71 71 72 75 75 75 77 77 77 77 77 78 80 80 78 79 81 83 84 84 83 83 81 80 78 78 77 78 78 79 80 80 80 80 81 81 80 80 80 79 79 80 80 81 82 82 81 81 80 80 80 80 79
68 68 70 71 73 75 76 78 80 81 84 84 85 86 87 88 90 91 90 91 90 86 85 87 86 84 80 77 79 81 80 78 76 78 78 77 78 80 82 83 84 83 82 82 83 84 85 85 85 85 87 88 88 88 87 86 85 84 83 82 81 81 81 81 82 82 83 83 83 82 82 82 82 81 81 80 81 82 83 85 85 84 84 84 84 84
72 73 74 76 78 81 83 85 87 89 91 92 93 95 95 95 96 97 97 97 97 95 94 93 92 90 87 86 87 88 88 87 85 86 87 85 83 85 87 89 91 90 87 86 88 88 89 91 92 92 92 92 92 92 92 92 91 90 88 87 86 85 85 85 85 85 86 86 86 86 86 87 87 86 85 84 83 83 84 85 86 87 87 87 88 88
76 77 79 82 86 89 91 93 94 95 96 97 98 99 100 100 101 102 102 102 101 101 101 99 98 96 94 93 93 94 95 94 94 95 95 95 95 94 95 96 98 97 94 92 93 94 95 96 97 98 98 97 97 97 97 96 96 95 94 92 90 90 90 90 90 90 91 91 91 90 91 91 91 91 90 90 90 89 88 87 87 88 89 89 90 91
83 85 87 90 93 94 96 97 99 99 100 101 101 102 104 105 106 107 107 107 107 107 108 106 104 101 99 99 100 100 99 99 101 102 101 101 101 102 102 103 104 105 103 100 99 100 101 101 102 102 102 102 101 101 101 102 101 101 100 98 96 95 94 94 94 95 96 96 95 95 94 95 95 95 95 95 95 94 94 93 92 92 91 91 91 91
91 91 91 94 97 98 98 100 102 103 103 105 105 105 106 107 108 110 112 113 113 114 114 111 109 107 104 104 106 104 103 104 105 107 107 106 106 106 106 106 107 109 109 108 106 105 106 106 106 106 106 106 105 105 106 106 106 106 105 104 102 101 99 99 99 99 99 100 100 100 99 100 100 100 100 100 99 99 99 99 99 98 98 97 96 96
98 96 95 98 101 102 103 104 106 107 108 110 110 108 108 109 111 114 116 118 119 120 120 115 112 111 109 110 112 110 108 109 110 110 110 111 110 110 109 109 109 110 111 111 111 110 109 109 109 109 109 109 109 109 110 110 110 110 109 108 108 106 105 103 103 103 103 104 104 105 105 105 105 105 105 105 105 104 104 104 104 104 104 103 103 102
105 103 102 103 106 107 108 109 110 112 112 112 113 112 112 114 116 117 118 120 122 123 122 118 114 112 111 112 115 116 115 114 113 113 113 113 113 112 111 111 111 112 112 113 113 113 112 111 111 112 112 112 112 113 113 114 114 114 114 113 112 111 110 109 107 107 106 107 108 108 109 109 109 110 110 110 110 110 109 109 109 109 109 108 108 108
109 108 107 107 108 109 110 111 112 114 116 117 119 120 120 120 120 120 121 122 124 125 124 122 119 116 113 112 115 118 118 116 115 116 116 116 115 114 113 113 113 113 113 113 114 114 114 114 113 113 114 114 114 115 116 117 118 118 117 117 116 116 115 114 113 112 111 111 111 111 112 113 113 113 114 114 115 115 114 114 114 114 114 113 113 113
109 111 110 108 109 111 112 113 116 119 122 124 124 125 125 125 124 125 126 126 127 128 128 127 125 122 117 115 116 117 117 116 116 115 115 115 115 115 115 115 114 114 113 113 114 114 115 115 115 115 115 115 116 116 118 119 120 121 120 120 120 120 119 118 118 117 117 116 116 115 116 116 116 116 117 118 118 119 119 119 119 118 118 118 118 117
110 113 114 113 113 115 118 121 124 125 126 127 127 127 127 128 129 129 130 129 129 129 130 129 127 123 119 117 117 116 116 116 116 115 114 113 114 114 114 114 113 113 113 113 113 114 115 115 116 117 117 118 118 119 120 121 122 122 123 123 124 123 123 122 122 122 121 121 121 120 120 120 120 120 120 121 122 122 122 123 123 123 123 122 122 121
115 118 120 120 120 121 124 126 128 128 129 130 130 130 130 130 130 130 130 129 128 128 128 128 127 123 119 117 117 116 116 116 115 115 114 113 112 111 111 110 110 111 112 112 112 113 114 115 116 117 119 120 121 122 123 124 124 125 125 126 127 127 127 126 126 126 125 125 125 125 125 125 124 124 124 125 125 125 126 126 127 127 127 127 127 126
121 124 125 126 127 127 127 127 129 131 132 133 132 131 131 130 131 130 129 126 125 124 124 125 125 122 118 116 116 116 115 114 114 114 114 113 111 110 109 108 108 108 109 109 110 111 112 114 115 116 118 120 122 123 125 126 127 127 127 128 128 129 129 129 129 129 129 129 129 129 129 128 128 128 128 128 128 129 129 129 130 130 130 131 131 131
125 128 131 132 133 132 130 130 132 134 134 133 132 131 130 130 129 128 126 124 124 123 121 122 123 120 116 114 113 113 113 113 113 113 113 112 110 109 108 107 107 107 107 107 108 108 110 112 113 115 116 118 120 122 124 126 127 128 128 128 129 129 130 130 130 131 131 131 131 131 131 131 131 131 131 131 132 132 132 133 133 133 134 134 134 135
131 133 136 136 136 134 133 132 133 133 132 132 131 130 128 126 125 123 122 123 124 122 119 120 119 116 113 111 110 110 111 112 112 112 112 110 109 108 108 107 106 106 106 106 106 107 107 108 110 112 113 115 117 119 121 123 125 126 126 127 128 128 129 129 130 130 130 131 131 132 132 133 133 132 133 133 134 135 136 136 136 137 137 138 138 138
135 136 137 137 137 137 135 133 132 131 132 131 129 127 124 122 120 119 119 119 119 119 118 118 116 113 111 110 109 110 112 112 113 113 112 111 109 109 109 109 108 108 107 107 107 107 107 107 108 109 110 112 114 115 117 119 121 122 123 123 124 125 126 127 127 128 128 129 130 130 131 132 132 132 132 132 133 135 136 138 139 140 140 141 142 142
137 137 137 138 139 138 136 133 131 131 131 129 125 122 119 117 116 115 115 114 115 117 118 116 114 114 113 111 110 112 114 115 115 113 112 111 110 111 111 110 110 109 109 108 108 108 108 108 108 108 108 109 110 111 113 114 116 118 119 119 120 120 121 122 123 123 124 126 127 128 129 130 130 131 131 131 131 132 134 135 137 139 140 142 143 144
139 139 139 139 139 137 134 132 130 129 128 126 122 119 115 113 111 111 110 112 115 118 118 114 113 116 115 112 111 113 116 117 116 114 113 111 110 110 111 111 111 111 111 110 110 110 110 110 109 109 108 108 108 108 109 110 112 113 115 116 117 117 118 119 119 120 121 122 123 124 125 126 127 128 129 129 130 130 131 132 133 135 136 138 140 141
142 141 139 138 137 135 132 130 128 127 126 123 119 116 112 108 107 107 109 112 116 120 119 116 116 116 114 112 113 114 115 115 116 115 114 112 110 109 110 111 112 113 112 112 112 112 111 111 111 111 110 110 109 109 108 109 110 111 112 113 114 115 116 117 118 119 120 120 121 122 122 123 123 124 126 127 128 129 130 131 131 132 133 134 135 137
142 140 138 137 135 132 129 127 127 127 125 121 116 112 109 106 106 108 111 114 117 120 119 118 118 117 114 113 115 115 114 113 113 114 114 113 112 111 111 111 112 113 113 112 112 112 112 112 112 112 112 111 110 110 110 110 110 111 111 112 113 114 115 115 116 117 118 119 120 121 122 122 123 123 124 125 126 127 128 129 130 131 131 132 133 133
140 137 136 135 133 130 126 125 127 126 123 119 113 108 106 107 109 112 114 115 117 119 119 120 121 119 115 115 116 115 113 112 111 112 113 113 114 113 112 112 112 112 112 112 112 112 112 112 112 111 111 110 110 109 109 109 109 109 110 111 112 113 113 114 114 115 116 117 118 119 120 121 122 123 123 124 125 125 126 127 128 129 130 131 131 131
137 135 134 133 132 127 122 123 125 124 122 118 110 106 108 112 113 114 114 115 117 118 119 120 120 119 118 117 116 114 112 111 111 111 112 112 112 112 112 111 111 110 109 109 110 110 110 109 109 109 109 109 108 107 106 106 106 106 107 108 109 110 110 111 111 112 113 114 115 116 117 118 119 120 121 122 123 124 125 126 126 127 128 129 129 130
134 133 132 132 131 126 121 121 123 124 121 113 107 108 113 114 114 114 115 115 116 118 119 119 118 119 120 119 116 113 112 111 110 110 109 110 110 111 110 109 108 107 107 107 107 108 107 107 106 106 106 106 106 104 103 103 103 103 103 104 105 106 106 107 107 108 108 109 110 111 112 113 114 114 115 117 118 120 121 123 124 125 127 127 128 128
131 131 131 130 129 126 122 121 124 123 118 111 109 112 114 114 115 116 116 115 116 117 118 118 118 120 120 118 115 113 111 109 107 106 106 107 108 108 107 106 105 105 105 106 106 106 106 106 106 105 105 105 104 103 103 102 102 101 101 101 102 102 103 104 104 105 105 105 106 107 108 109 109 110 110 111 112 113 115 116 118 120 122 124 125 125
129 128 128 128 128 126 124 123 124 121 115 112 112 112 112 114 116 117 117 115 114 114 114 115 117 119 118 114 112 111 109 106 104 102 102 104 105 105 103 102 102 103 103 104 104 105 105 106 106 106 105 104 103 103 102 102 101 101 100 100 100 100 101 102 102 102 103 103 104 105 106 106 106 107 107 107 108 109 110 111 112 113 115 117 118 119
128 127 127 127 128 127 126 125 123 119 115 113 113 112 112 114 114 115 115 114 111 109 109 111 114 115 114 111 108 106 105 103 101 100 100 103 104 103 102 102 102 103 103 103 103 103 104 105 106 106 105 104 103 101 101 100 100 100 99 99 99 99 99 99 99 100 100 101 102 103 105 105 105 105 105 105 106 106 107 107 108 109 110 111 112 113
127 127 128 128 128 127 127 125 123 119 115 112 111 112 113 112 111 111 112 110 106 103 105 108 110 110 108 106 104 103 102 101 99 99 101 103 104 103 104 103 103 103 102 101 101 102 103 103 104 103 103 102 101 100 98 98 98 98 98 99 98 97 97 97 96 96 97 98 99 100 102 103 103 103 103 103 104 104 104 105 106 107 108 108 109 109
127 127 128 129 128 127 127 125 122 119 114 110 110 111 111 109 108 109 109 106 100 99 101 104 105 104 103 103 102 100 100 99 98 98 101 103 102 102 102 102 102 101 101 100 100 101 101 101 101 101 100 100 99 97 96 96 96 96 97 97 97 96 96 95 95 95 95 95 96 97 98 99 100 100 100 100 101 101 102 102 103 104 105 106 106 106
126 127 127 128 127 125 125 123 120 117 113 110 109 109 108 107 106 107 107 102 97 97 98 98 99 100 100 101 101 100 99 99 98 98 100 101 100 100 99 99 99 99 100 99 99 99 98 98 99 98 98 97 96 95 94 94 94 94 94 94 94 94 94 93 93 93 93 94 94 94 95 96 96 96 97 97 97 98 98 99 100 101 102 102 103 103
124 125 125 125 123 121 121 120 117 113 110 108 108 108 106 105 105 106 106 101 97 95 94 94 95 97 98 99 99 99 99 99 98 97 98 99 98 98 97 96 96 97 97 97 97 96 96 96 96 95 95 95 94 93 92 91 91 91 91 90 90 90 89 89 90 90 90 91 91 92 93 93 93 93 94 94 94 94 94 95 96 97 98 98 99 100
120 120 120 119 117 116 116 116 113 109 105 105 107 107 106 105 105 105 105 102 98 95 92 92 93 95 96 97 97 97 97 97 97 96 96 97 97 96 96 95 94 94 95 94 94 94 95 94 94 93 93 93 93 92 91 90 89 89 88 88 87 86 86 86 86 87 87 88 89 89 90 91 91 91 91 92 91 91 91 92 93 93 94 94 95 95
114 114 113 112 111 111 111 111 109 105 101 101 105 106 105 105 105 104 104 102 99 95 93 92 92 93 95 95 95 96 96 96 96 95 94 94 94 94 94 93 93 92 91 91 91 91 92 91 91 91 91 91 91 90 89 89 88 88 88 87 86 85 85 85 85 85 86 86 87 87 88 88 89 89 89 89 89 89 89 90 91 91 91 91 92 92
109 109 107 106 106 108 108 106 106 103 100 101 104 106 105 104 103 102 102 101 99 96 94 93 92 92 93 94 95 96 95 95 94 93 92 92 92 91 91 91 90 90 89 88 88 88 88 88 88 89 89 89 89 89 88 88 87 87 87 86 85 84 84 84 84 85 85 85 86 86 87 87 87 88 88 88 88 88 88 88 89 90 90 90 90 91
106 106 104 103 103 105 105 103 103 103 102 102 104 105 104 103 101 100 100 99 97 95 94 94 93 92 93 93 93 93 93 93 94 93 92 91 90 90 89 88 88 87 86 86 86 86 86 86 86 87 88 88 88 87 87 87 86 86 86 85 84 84 84 84 84 84 84 85 86 86 86 86 86 87 87 88 87 87 87 87 88 89 90 90 90 90
104 104 104 102 100 102 103 101 102 105 105 103 103 103 101 100 98 98 99 97 94 93 93 93 93 92 92 92 91 90 91 92 93 93 92 90 89 88 87 86 86 85 85 85 84 84 84 85 85 86 87 87 87 86 86 86 86 85 84 84 84 84 83 83 84 84 84 85 86 86 86 86 86 87 88 88 87 87 87 88 88 89 90 90 90 90
101 101 102 101 98 100 101 100 103 106 105 103 102 101 99 98 96 95 95 94 91 90 91 91 91 91 91 91 90 90 90 91 91 91 90 89 88 87 86 85 85 84 84 83 82 82 83 84 84 85 86 87 87 86 86 86 85 84 83 84 84 84 83 83 83 83 85 86 86 86 86 86 87 88 88 87 87 87 88 88 89 89 89 89 89 89
100 99 99 98 98 99 99 99 102 105 103 101 101 100 99 98 95 94 93 91 90 89 90 90 90 90 89 89 88 88 89 88 88 88 88 87 87 86 85 85 84 84 83 82 81 82 82 83 83 84 85 86 86 86 86 86 85 83 83 83 84 83 83 82 82 83 84 85 85 85 85 85 86 86 86 86 86 86 87 87 87 87 87 88 87 87
99 98 96 97 98 98 96 96 100 102 100 97 98 99 99 97 95 93 92 90 90 91 90 90 90 90 89 88 87 87 87 87 87 86 86 86 85 84 83 83 82 82 81 80 80 81 81 82 82 83 84 84 85 85 85 84 84 83 82 83 82 82 81 81 82 82 83 84 84 84 84 84 84 83 83 84 84 84 84 84 84 83 83 83 83 82
98 97 96 98 98 93 92 95 99 99 97 95 95 98 98 96 94 92 91 91 90 90 90 89 88 88 88 88 88 88 88 87 86 85 84 83 83 82 82 81 81 80 79 79 79 79 80 80 81 82 83 83 84 84 84 83 83 82 82 82 81 80 80 80 81 82 83 82 82 82 81 81 81 80 80 81 81 81 81 81 80 80 80 80 79 78
97 96 95 97 97 91 91 95 99 98 96 92 92 94 95 94 92 91 92 92 91 90 90 89 88 88 87 87 87 87 87 86 85 83 82 81 81 81 81 80 80 79 79 78 78 79 79 80 80 81 82 82 83 82 82 82 82 81 81 81 80 80 79 79 80 81 81 81 80 79 78 77 77 77 77 78 78 79 79 78 78 77 77 78 78 77
97 95 94 97 97 94 92 95 98 98 93 88 87 90 92 91 91 90 91 91 90 89 89 89 88 87 87 87 87 86 86 85 84 83 82 81 80 80 80 80 79 79 79 79 79 79 80 80 80 81 81 81 81 80 80 81 80 80 79 79 78 78 77 77 77 78 78 78 77 76 75 74 74 75 75 76 76 76 76 77 77 76 76 76 76 76
Wind_Direction
271 269 267 267 268 269 270 270 270 270 269 269 268 266 265 264 264 265 265 265 266 265 266 267 270 272 273 272 272 271 272 273 275 278 280 282 282 280 280 281 281 281 281 281 282 282 281 281 280 279 279 278 277 276 274 273 272 271 271 272 274 274 274 273 272 272 272 271 272 272 273 274 275 275 276 275 275 274 273 272 270 269 268 268 267 265
269 272 269 267 269 271 271 270 268 268 268 269 270 270 269 267 265 264 265 265 266 268 268 268 268 270 272 272 271 271 271 270 271 274 277 278 279 279 279 279 279 279 280 281 281 281 281 281 281 280 279 278 278 277 276 275 274 272 271 271 272 272 273 272 272 271 270 270 270 270 270 271 272 273 274 274 274 274 273 273 272 271 271 271 271 269
267 269 269 267 268 270 272 272 270 268 268 267 268 269 271 270 267 266 266 266 266 267 269 270 270 271 271 271 270 269 269 270 272 273 274 275 276 276 276 276 277 277 278 278 279 280 280 279 280 280 279 278 278 277 277 276 276 275 273 271 271 271 271 271 271 271 270 269 268 268 268 269 269 270 271 272 273 273 272 272 272 272 272 273 273 272
269 268 268 267 268 269 270 270 270 270 270 271 270 269 270 270 269 268 267 267 267 266 267 269 271 272 273 272 271 268 267 268 271 273 274 274 275 275 275 275 275 276 276 277 278 279 279 278 278 278 278 277 277 277 277 277 277 276 275 274 272 271 270 270 270 270 270 269 268 267 267 267 267 268 269 271 272 271 271 271 271 271 271 273 273 273
274 272 270 268 268 269 271 271 270 269 270 272 272 272 271 271 270 269 268 268 268 269 268 268 268 270 271 272 272 270 268 268 269 270 271 273 274 275 276 276 276 275 276 277 278 279 279 278 278 278 277 277 276 276 277 277 277 277 276 275 274 273 272 270 269 269 269 268 268 267 266 265 265 267 268 269 270 270 270 270 270 270 271 272 273 273
276 276 275 273 271 270 271 272 272 271 271 272 273 274 274 274 274 273 272 271 271 272 273 272 271 269 270 271 271 270 270 270 269 269 269 269 270 271 272 273 274 275 275 276 276 277 277 278 278 278 277 277 277 277 277 277 276 276 276 276 275 275 274 272 270 269 268 267 267 266 265 264 264 265 266 268 268 269 269 269 269 269 270 271 272 272
279 278 278 278 278 276 274 274 274 274 274 274 275 276 276 276 276 276 276 276 276 276 277 277 275 272 271 271 271 271 271 271 271 270 270 269 268 268 268 268 270 271 272 273 274 275 276 277 277 278 278 277 277 277 277 277 277 276 276 276 275 275 275 274 272 270 268 267 266 265 265 264 264 264 264 265 266 267 267 268 268 268 268 269 270 271
280 280 281 281 282 283 281 279 277 277 277 277 277 278 278 279 279 279 279 279 279 279 279 280 278 274 272 272 273 273 272 272 273 273 272 271 270 268 268 267 267 268 269 270 271 273 274 275 276 277 278 279 278 278 277 277 276 276 276 276 275 275 275 274 273 272 270 268 267 265 264 264 263 263 263 264 265 266 266 266 267 267 266 267 268 268
281 282 283 283 283 283 283 282 281 281 280 280 280 280 281 282 283 283 282 281 280 278 278 279 277 276 275 275 275 274 273 273 274 276 275 274 272 270 269 269 268 268 268 268 269 269 270 273 275 277 278 279 280 279 279 278 277 276 275 275 275 275 274 273 273 272 272 271 269 267 265 265 264 264 263 263 264 264 264 265 265 266 265 265 265 266
280 281 282 282 281 282 283 283 283 284 283 283 283 283 283 284 285 285 284 283 281 280 280 280 278 279 278 278 279 279 277 276 275 275 275 274 273 271 270 270 269 268 268 269 270 270 269 269 272 276 277 278 278 278 279 279 278 277 276 275 274 273 272 272 272 271 271 271 271 270 268 267 266 266 265 264 264 264 264 264 264 264 264 264 264 264
279 280 280 281 282 284 286 286 286 287 287 286 287 287 288 288 288 289 288 287 286 285 285 285 283 283 281 281 283 282 280 278 276 275 274 272 272 271 270 271 270 270 270 270 271 271 271 270 270 274 276 277 276 276 276 276 276 276 276 276 275 273 272 272 271 271 270 270 270 270 270 268 267 267 266 266 265 265 264 264 264 264 263 263 264 264
279 280 282 285 287 289 290 291 292 292 292 292 292 292 292 292 292 292 292 291 290 289 288 287 286 285 285 286 287 286 284 281 280 279 277 272 270 270 271 271 271 270 270 271 271 271 271 271 271 271 273 274 274 274 274 274 275 275 276 275 274 274 272 272 271 270 270 269 269 270 270 269 268 267 266 265 265 264 264 263 263 263 263 263 263 263
283 285 287 289 291 293 294 294 294 294 294 294 295 294 294 294 294 294 293 293 292 292 291 290 290 290 290 291 290 289 287 286 284 284 282 278 275 273 273 274 273 271 268 268 269 269 270 270 271 270 271 271 272 273 274 274 275 275 276 275 274 274 273 271 271 270 269 268 268 268 268 269 268 268 266 265 265 265 263 262 262 261 262 262 263 263
289 290 291 293 294 295 295 295 294 294 295 295 295 295 295 296 295 294 293 293 293 293 292 291 292 293 293 292 291 289 289 289 289 288 286 285 283 281 280 280 279 277 272 268 268 269 270 271 271 271 271 271 271 272 273 273 274 275 275 275 273 273 272 271 271 270 269 268 267 267 266 266 266 266 266 266 265 265 264 263 262 261 261 261 262 262
293 294 295 295 295 295 295 295 296 296 296 295 296 296 297 297 296 295 294 294 294 294 293 293 293 293 293 291 290 289 290 290 289 288 287 286 285 284 284 284 283 282 279 275 272 271 272 273 273 273 273 272 272 272 272 273 273 274 275 274 273 272 271 270 269 269 268 268 267 266 266 265 265 264 264 264 265 265 264 263 263 262 261 261 261 261
294 295 295 295 295 295 295 296 296 296 295 296 297 297 297 296 295 295 296 296 295 294 294 294 294 293 291 290 290 290 290 289 288 288 288 286 285 284 283 283 283 282 281 279 276 274 273 273 274 274 274 273 273 273 273 273 273 273 273 273 273 273 271 270 269 268 267 267 266 266 265 264 264 264 264 263 263 263 263 263 263 263 262 262 261 261
294 295 296 296 296 296 296 296 296 296 296 297 297 297 296 295 295 295 296 296 295 294 294 294 293 292 290 289 291 291 289 288 288 287 286 285 284 282 281 281 281 281 280 279 278 276 274 274 273 273 273 273 273 272 272 272 272 272 272 272 272 272 271 270 269 268 267 267 266 265 265 264 263 263 263 263 262 262 262 262 262 262 262 262 262 262
296 296 297 297 297 297 297 296 296 297 296 296 296 296 295 295 295 295 294 293 293 293 293 293 291 290 289 289 290 290 288 288 287 286 284 283 282 280 279 279 279 278 278 277 277 276 275 274 273 272 272 271 271 271 271 271 271 271 272 271 271 271 270 270 269 268 268 266 265 265 265 264 264 263 263 262 262 261 261 261 261 261 261 261 261 261
296 296 296 296 296 295 295 296 296 295 295 294 295 295 294 294 294 293 292 292 292 291 291 291 289 288 287 286 287 287 287 286 285 283 283 282 280 279 278 277 277 276 276 276 275 274 273 272 271 270 270 270 270 270 270 270 270 271 271 271 271 270 270 270 269 268 268 267 266 265 264 263 263 263 263 263 263 262 261 261 260 260 260 259 259 260
294 294 294 294 293 293 294 294 293 293 293 293 293 293 293 292 292 291 291 291 291 290 290 289 288 287 286 285 285 285 285 284 282 281 280 279 278 278 277 276 276 275 274 274 273 272 271 271 270 269 269 268 268 268 268 268 269 269 270 270 270 269 269 269 269 268 267 267 266 265 264 263 262 262 261 262 262 262 262 262 261 260 260 259 259 259
291 291 291 291 291 291 292 292 291 292 292 292 292 291 291 291 290 290 290 290 290 289 289 288 287 287 286 285 285 284 283 282 281 279 278 277 276 276 275 275 275 275 274 273 272 271 270 269 269 268 267 267 266 266 266 266 267 267 268 268 268 268 268 268 268 267 267 266 265 265 264 263 262 262 261 260 260 260 260 261 261 261 261 260 260 259
288 289 289 289 290 290 291 291 291 291 292 292 291 290 290 290 290 290 290 290 289 288 288 288 287 287 287 286 285 284 283 282 281 280 279 277 276 275 275 274 274 273 273 272 272 271 270 270 269 268 267 267 266 265 265 265 265 265 265 266 266 267 267 267 267 266 266 266 265 264 264 263 262 262 261 260 260 259 259 259 259 259 260 260 260 260
287 287 288 289 289 290 290 290 291 291 291 290 289 289 289 289 289 290 289 289 288 287 287 287 287 287 287 286 285 284 284 283 282 281 280 279 278 278 277 276 275 274 273 272 272 271 271 270 269 268 268 267 266 266 266 265 265 265 265 265 265 265 265 266 266 265 265 265 264 264 263 263 262 261 261 260 260 260 259 259 258 258 258 258 258 258
286 287 288 289 289 289 289 290 290 290 290 289 288 288 288 289 289 289 289 288 287 286 286 286 286 286 286 285 285 284 284 283 282 281 281 280 280 280 279 278 277 276 275 274 273 272 271 270 269 269 268 267 267 266 266 266 265 265 265 265 265 265 265 265 265 265 265 264 264 263 263 262 262 261 260 260 260 259 259 259 259 258 258 258 257 257
287 288 289 289 289 289 289 290 290 289 288 288 288 288 288 288 288 288 288 288 287 287 287 286 285 285 285 285 284 284 283 283 282 282 281 281 281 281 281 280 279 278 277 276 275 273 272 271 270 269 269 268 267 267 267 266 266 266 266 265 265 266 266 266 266 265 265 265 264 264 263 263 262 261 260 260 260 259 259 259 259 258 258 258 258 257
288 288 289 289 289 289 290 290 289 289 288 288 288 288 288 288 288 288 288 288 288 288 287 285 286 286 285 284 284 284 283 282 282 282 282 282 283 282 282 281 281 280 279 278 277 276 275 273 272 271 270 269 268 268 268 268 267 267 267 266 266 266 265 265 265 265 265 265 265 265 264 264 263 262 261 261 260 260 259 259 259 259 258 258 258 258
288 289 289 289 289 290 290 290 289 289 288 288 288 288 288 288 289 289 289 289 288 287 285 285 286 286 284 284 284 284 283 283 282 282 283 283 283 283 282 282 282 281 280 280 279 278 277 276 274 273 272 271 270 269 269 268 268 268 268 268 267 267 266 266 266 265 265 265 264 264 264 264 264 264 264 263 262 261 260 260 259 259 259 259 259 258
289 289 289 290 290 290 290 290 289 289 288 287 287 288 288 288 289 289 289 288 287 285 285 285 285 284 284 284 284 283 283 283 283 283 283 283 283 283 283 283 283 282 282 281 280 279 278 277 276 275 274 273 272 271 270 269 268 268 268 267 267 267 267 266 266 266 265 265 264 264 264 264 264 264 264 264 263 263 262 261 260 260 259 259 259 259
289 290 290 290 290 290 290 290 289 289 288 288 288 288 288 289 289 289 288 286 285 285 285 285 284 284 284 284 284 283 282 283 283 284 284 284 284 283 283 283 282 282 281 281 280 280 279 278 277 277 276 275 273 272 271 270 269 269 268 268 267 266 266 265 265 265 265 264 264 264 264 263 263 263 263 263 263 263 263 263 262 261 261 260 260 260
290 290 290 290 290 290 290 290 290 289 288 288 288 288 289 290 290 288 286 285 285 285 285 286 285 284 284 284 283 282 282 282 283 284 284 285 284 283 283 282 282 281 281 281 280 280 279 279 278 277 276 275 274 273 272 271 271 270 269 268 268 267 266 266 265 264 264 264 264 264 264 263 263 263 263 263 263 263 263 263 263 263 263 262 262 261
290 290 290 290 289 289 290 290 289 288 288 288 288 290 291 291 288 286 285 285 285 285 286 285 285 284 284 283 282 282 283 283 283 284 284 284 284 283 283 282 282 282 281 281 281 280 280 279 278 278 277 276 275 274 273 272 272 271 270 270 269 269 268 268 267 266 266 265 264 264 264 263 263 263 264 264 264 264 264 264 264 264 264 264 264 264
289 289 289 289 289 289 289 288 288 288 287 287 289 291 291 288 286 285 285 285 285 286 285 284 284 285 284 283 283 284 284 284 284 284 284 284 284 284 283 283 283 282 282 282 281 280 280 279 278 277 277 276 275 275 274 273 273 272 272 271 271 270 270 269 269 268 268 267 267 266 265 265 264 264 263 263 263 264 264 264 264 264 264 264 265 265
289 289 289 289 288 288 288 287 287 286 286 288 290 290 288 286 286 286 285 285 285 285 285 285 285 285 285 284 285 285 285 285 285 285 285 285 285 284 284 284 284 284 283 282 281 280 279 279 278 278 277 277 277 276 276 275 274 273 273 272 272 272 271 271 271 270 269 269 269 268 268 267 266 265 264 264 263 263 263 263 263 263 264 264 264 264
288 288 288 288 288 288 287 287 286 286 287 289 289 287 287 287 286 285 285 285 285 284 285 285 285 285 284 285 285 285 285 285 285 286 286 286 285 285 285 285 285 284 283 282 281 281 281 280 280 279 278 278 278 277 277 276 275 274 274 273 273 272 272 272 272 271 271 270 270 269 269 268 268 267 266 265 265 264 263 263 262 262 262 263 263 263
288 287 287 287 287 287 287 286 285 286 287 288 287 286 286 286 285 285 284 284 284 284 284 284 284 284 284 285 285 285 286 286 286 287 286 285 285 284 284 284 283 282 281 281 281 281 281 281 280 280 279 279 278 278 277 277 276 276 275 274 274 273 272 272 272 271 271 271 270 270 269 269 268 268 267 267 266 265 265 264 264 263 263 263 263 263
287 287 287 286 286 286 286 286 286 286 287 287 286 286 285 284 284 284 284 283 283 283 284 284 283 283 284 285 286 286 287 288 288 288 287 286 285 284 284 283 282 281 281 281 281 281 280 280 279 279 279 279 279 278 278 278 278 277 277 276 275 273 273 272 272 271 271 271 271 271 270 270 269 269 268 268 267 267 266 265 265 264 264 263 263 263
287 286 286 286 286 286 286 286 286 286 286 287 287 286 285 284 284 284 283 283 283 284 284 283 283 284 285 286 287 287 288 288 288 288 287 285 285 285 284 283 283 282 282 282 281 281 280 279 279 279 279 279 279 279 279 279 278 278 278 277 276 276 275 274 274 273 272 272 272 271 271 271 271 270 270 269 269 268 268 267 266 266 265 264 264 263
286 286 286 286 286 286 286 286 287 287 287 287 286 285 285 285 285 284 283 283 284 284 283 283 284 285 286 287 287 287 287 287 287 286 284 284 283 283 283 284 284 284 283 282 281 280 280 280 280 280 279 279 279 279 279 279 278 278 278 278 278 278 277 277 276 276 275 274 273 273 272 272 272 271 271 270 270 269 269 268 268 267 266 266 265 264
285 285 285 285 285 286 286 286 287 287 288 288 287 287 286 286 285 284 284 284 284 283 283 284 285 286 287 287 287 287 287 286 285 284 284 283 283 283 283 284 283 283 283 282 281 281 281 281 281 281 281 281 281 280 280 279 279 278 278 278 278 278 278 278 277 277 277 276 275 275 274 273 273 272 272 271 270 270 269 269 268 268 267 267 267 266
284 284 284 284 285 285 286 286 286 287 288 289 288 288 287 286 286 285 285 285 284 284 284 286 286 286 287 286 286 286 286 285 285 284 284 284 284 284 283 283 283 282 282 282 282 283 282 282 282 282 282 282 282 282 281 281 280 279 279 278 278 277 277 277 277 277 276 276 275 275 274 274 274 273 273 272 271 271 270 270 269 269 268 268 267 267
283 283 283 283 284 285 285 285 285 287 288 289 288 287 287 286 286 286 286 286 286 287 288 288 287 286 286 285 285 285 285 285 284 284 284 284 284 284 284 283 283 283 283 283 284 284 283 283 284 284 283 283 283 282 282 282 281 280 279 279 278 278 278 277 277 276 276 275 275 275 274 274 274 273 273 273 272 272 272 271 271 270 269 268 268 267
282 282 282 283 284 284 284 284 286 287 288 287 286 286 286 286 286 286 287 288 289 290 289 288 287 286 286 286 285 285 284 284 284 284 284 284 283 283 283 283 283 283 283 284 284 283 284 284 284 284 283 283 282 282 282 281 281 281 280 280 280 279 279 278 278 277 277 276 276 275 275 274 274 274 273 273 273 273 272 272 271 271 270 270 269 268
282 282 282 282 282 283 284 285 287 287 287 286 285 285 285 285 286 287 288 289 289 289 289 288 287 287 286 286 285 285 285 285 285 284 284 283 283 283 283 283 283 284 284 284 284 284 284 284 284 283 282 282 282 281 281 281 281 280 280 280 280 280 279 279 278 278 278 277 277 276 276 275 275 275 274 274 273 273 272 272 272 271 271 270 269 268
282 282 282 282 282 284 285 286 287 286 285 284 284 284 285 286 287 288 287 287 287 288 288 288 287 286 286 285 285 286 286 286 285 284 283 283 283 283 283 283 284 284 284 284 284 284 284 284 283 283 282 282 281 281 281 280 280 280 280 280 280 280 279 279 279 279 278 278 278 277 277 277 276 276 275 275 274 274 273 273 272 272 271 270 269 268
281 282 282 283 284 285 286 286 286 285 284 284 284 284 285 286 286 286 286 286 287 288 288 287 287 286 285 285 285 285 285 284 284 284 284 285 285 284 284 284 284 284 284 284 284 284 284 283 283 282 282 282 281 281 280 280 280 280 280 280 280 280 279 279 279 279 279 278 278 277 277 277 277 276 276 275 275 275 274 274 273 272 271 271 270 269
281 282 282 284 285 285 285 286 285 284 285 285 286 286 286 285 284 284 285 286 287 287 287 287 286 286 285 285 285 285 285 285 285 285 285 286 285 285 285 285 285 285 285 284 284 284 283 282 282 282 281 281 281 281 280 280 280 280 280 280 280 280 280 280 280 279 279 278 278 277 277 277 276 276 276 276 276 275 275 274 274 273 273 272 272 271
281 281 283 284 285 284 284 284 284 284 285 285 286 286 286 286 286 287 287 288 289 288 287 287 286 286 286 286 286 285 285 285 285 285 285 285 285 286 286 286 286 285 285 285 284 284 283 282 282 281 281 281 281 281 280 280 281 281 281 280 280 280 280 280 280 279 278 278 278 278 277 277 277 277 277 277 276 276 275 275 274 274 273 273 272 272
282 283 284 284 283 282 283 284 283 283 283 284 285 286 286 287 288 289 290 291 290 289 288 288 288 288 288 287 286 286 285 285 285 285 285 286 286 286 286 286 285 285 284 284 284 284 283 283 282 282 282 282 282 281 281 282 282 282 281 281 281 281 281 281 280 279 279 279 278 278 278 278 278 278 278 278 278 277 276 276 275 274 274 273 272 272
283 284 284 283 282 283 283 282 282 282 283 284 285 287 288 289 290 291 291 291 289 288 288 288 288 287 287 287 287 286 286 286 285 286 286 286 286 286 286 285 285 284 284 284 284 283 283 282 282 282 282 282 282 282 282 283 283 282 282 282 282 282 282 281 281 280 280 279 279 279 279 279 279 280 280 279 279 278 277 277 276 276 275 275 274 272
283 284 284 284 283 283 282 281 281 282 283 284 286 288 289 290 291 291 290 289 289 289 289 288 288 287 287 287 287 286 286 286 286 286 286 286 286 285 285 285 285 285 285 284 283 283 282 282 281 281 281 281 281 282 282 283 283 282 282 282 282 282 281 281 281 280 280 280 280 280 280 280 280 280 280 279 279 279 279 278 278 277 276 276 275 275
284 284 284 284 283 282 282 282 282 283 284 287 288 288 289 289 289 289 289 289 289 289 288 287 287 287 287 287 287 286 286 286 286 286 286 286 286 285 285 285 285 284 284 284 283 282 282 281 281 281 281 281 281 282 282 282 282 282 282 282 282 281 281 281 280 280 280 280 280 280 281 281 280 280 279 279 279 279 280 279 279 278 277 276 276 275
Height
10729 10731 10735 10732 10728 10727 10727 10730 10731 10732 10732 10732 10732 10732 10733 10733 10733 10730 10729 10729 10728 10730 10731 10728 10728 10729 10729 10727 10725 10724 10722 10720 10718 10716 10715 10714 10714 10713 10712 10712 10711 10710 10709 10709 10709 10708 10707 10707 10708 10708 10707 10707 10706 10705 10705 10704 10704 10703 10702 10700 10699 10699 10699 10698 10699 10698 10698 10698 10698 10697 10696 10695 10694 10693 10692 10691 10690 10691 10691 10691 10691 10690 10690 10690 10690 10692
10725 10726 10727 10727 10724 10721 10720 10722 10725 10725 10725 10726 10726 10726 10727 10727 10726 10725 10725 10725 10724 10725 10726 10724 10725 10726 10724 10722 10720 10718 10716 10714 10714 10714 10712 10709 10707 10707 10707 10706 10704 10703 10703 10702 10702 10701 10700 10700 10701 10701 10701 10700 10699 10698 10698 10698 10697 10697 10696 10695 10694 10693 10692 10691 10691 10691 10691 10691 10691 10691 10690 10689 10689 10688 10686 10685 10685 10684 10684 10684 10683 10683 10682 10683 10683 10684
10722 10721 10719 10721 10719 10715 10714 10715 10716 10718 10718 10719 10720 10719 10720 10719 10719 10720 10719 10720 10720 10721 10720 10719 10721 10722 10719 10718 10715 10712 10709 10708 10711 10711 10707 10705 10703 10701 10700 10699 10697 10697 10696 10695 10694 10693 10693 10693 10693 10693 10693 10693 10692 10692 10691 10690 10691 10690 10690 10689 10688 10687 10686 10685 10684 10683 10683 10684 10684 10684 10684 10683 10683 10682 10680 10679 10679 10678 10678 10677 10677 10676 10675 10675 10675 10675
10717 10716 10713 10714 10712 10709 10709 10709 10708 10710 10710 10711 10712 10712 10713 10710 10710 10713 10713 10713 10714 10714 10715 10714 10716 10716 10713 10712 10709 10705 10703 10704 10707 10705 10701 10700 10698 10695 10693 10692 10691 10690 10688 10687 10686 10686 10685 10685 10685 10685 10685 10685 10684 10684 10683 10683 10683 10683 10682 10682 10681 10681 10680 10679 10678 10677 10676 10676 10676 10676 10676 10676 10676 10675 10674 10673 10673 10672 10671 10671 10670 10669 10668 10668 10667 10667
10709 10708 10706 10707 10707 10704 10703 10702 10701 10703 10705 10704 10704 10704 10704 10702 10702 10705 10705 10706 10707 10707 10708 10709 10711 10711 10708 10705 10701 10696 10696 10701 10703 10699 10695 10695 10693 10691 10688 10684 10683 10683 10681 10680 10678 10677 10676 10676 10676 10676 10676 10676 10676 10675 10675 10675 10675 10675 10675 10674 10674 10674 10673 10673 10672 10671 10669 10668 10668 10668 10668 10668 10668 10667 10667 10666 10666 10665 10664 10664 10664 10663 10662 10661 10660 10660
10702 10700 10697 10698 10701 10701 10700 10697 10693 10696 10699 10698 10696 10696 10695 10694 10695 10696 10696 10698 10701 10701 10701 10701 10703 10705 10703 10698 10693 10687 10688 10696 10697 10692 10690 10690 10687 10685 10683 10679 10676 10675 10674 10672 10671 10670 10668 10667 10666 10666 10667 10666 10667 10666 10666 10666 10666 10666 10666 10666 10666 10666 10665 10665 10665 10664 10663 10662 10660 10660 10660 10660 10659 10659 10659 10658 10657 10657 10657 10656 10656 10655 10654 10654 10653 10652
10696 10693 10691 10690 10691 10693 10694 10692 10688 10689 10692 10693 10690 10687 10686 10687 10687 10687 10688 10689 10692 10694 10694 10692 10691 10696 10698 10691 10685 10680 10680 10689 10689 10683 10683 10683 10679 10677 10675 10673 10669 10667 10667 10664 10664 10663 10660 10658 10657 10656 10656 10657 10657 10657 10657 10656 10656 10657 10657 10657 10657 10657 10657 10656 10656 10656 10655 10655 10653 10652 10652 10651 10651 10651 10650 10649 10648 10648 10648 10648 10648 10647 10646 10645 10645 10644
10689 10686 10684 10684 10684 10684 10684 10682 10681 10681 10684 10686 10683 10679 10679 10679 10678 10679 10680 10681 10682 10684 10688 10685 10678 10683 10690 10686 10679 10674 10674 10681 10681 10674 10675 10674 10670 10668 10665 10664 10661 10660 10660 10657 10656 10657 10653 10648 10647 10647 10646 10646 10646 10646 10647 10647 10647 10647 10647 10647 10648 10648 10648 10647 10646 10646 10646 10646 10645 10644 10644 10643 10643 10642 10642 10641 10640 10639 10639 10639 10638 10638 10638 10637 10636 10636
10682 10679 10677 10676 10676 10675 10675 10673 10672 10672 10673 10676 10674 10672 10672 10671 10670 10670 10670 10672 10672 10675 10682 10678 10667 10670 10681 10679 10673 10668 10667 10674 10672 10665 10667 10665 10659 10657 10655 10653 10652 10651 10651 10650 10648 10648 10646 10641 10638 10638 10637 10636 10636 10635 10635 10636 10637 10637 10637 10638 10638 10638 10638 10637 10636 10636 10635 10635 10635 10635 10635 10634 10634 10633 10633 10632 10631 10630 10630 10630 10629 10629 10629 10628 10627 10627
10674 10674 10670 10668 10667 10666 10667 10664 10663 10662 10662 10663 10663 10662 10662 10662 10661 10659 10660 10661 10660 10666 10673 10667 10658 10660 10669 10671 10667 10663 10661 10666 10665 10658 10658 10656 10648 10647 10646 10643 10642 10642 10642 10642 10639 10637 10637 10635 10631 10629 10628 10627 10626 10625 10624 10624 10625 10626 10627 10628 10628 10628 10627 10626 10626 10626 10625 10625 10624 10624 10624 10624 10624 10623 10623 10623 10622 10621 10620 10620 10620 10620 10619 10618 10617 10617
10666 10666 10662 10661 10659 10658 10657 10655 10653 10652 10650 10650 10651 10651 10651 10650 10649 10647 10649 10648 10647 10656 10660 10653 10647 10650 10656 10660 10658 10654 10652 10655 10656 10649 10646 10645 10639 10637 10637 10634 10632 10631 10631 10631 10630 10627 10625 10626 10624 10620 10618 10616 10615 10614 10614 10613 10613 10614 10615 10616 10617 10617 10617 10616 10615 10615 10614 10614 10613 10613 10613 10613 10612 10612 10612 10612 10612 10611 10610 10610 10610 10610 10610 10609 10608 10607
10656 10655 10653 10652 10650 10649 10647 10645 10644 10641 10638 10638 10639 10638 10638 10639 10637 10635 10636 10635 10634 10641 10644 10640 10638 10640 10646 10649 10645 10640 10638 10642 10643 10637 10633 10632 10630 10628 10626 10623 10621 10620 10621 10620 10619 10618 10615 10613 10612 10611 10608 10605 10603 10602 10602 10602 10602 10603 10603 10604 10604 10605 10605 10604 10604 10604 10603 10602 10602 10602 10602 10601 10601 10601 10601 10600 10600 10600 10600 10599 10599 10599 10599 10599 10598 10597
10646 10645 10644 10643 10640 10638 10636 10634 10633 10630 10628 10627 10626 10624 10624 10626 10624 10622 10622 10621 10621 10625 10626 10627 10627 10630 10635 10636 10631 10626 10623 10626 10628 10625 10620 10618 10617 10616 10612 10610 10607 10606 10608 10609 10607 10606 10604 10601 10598 10598 10597 10595 10593 10591 10590 10589 10589 10590 10591 10592 10592 10592 10592 10592 10591 10591 10591 10590 10590 10590 10590 10589 10589 10589 10589 10589 10588 10588 10588 10588 10587 10587 10587 10587 10587 10586
10637 10637 10636 10633 10630 10627 10624 10621 10619 10619 10618 10615 10613 10610 10610 10611 10608 10606 10607 10606 10607 10610 10609 10611 10616 10619 10621 10619 10616 10611 10609 10613 10613 10610 10608 10603 10602 10601 10597 10594 10591 10590 10592 10594 10593 10591 10590 10588 10585 10583 10582 10582 10581 10579 10578 10578 10577 10577 10577 10578 10579 10578 10578 10578 10577 10577 10576 10576 10577 10577 10577 10577 10576 10576 10576 10576 10576 10575 10575 10575 10575 10575 10575 10575 10575 10575
10625 10627 10626 10622 10618 10617 10613 10608 10606 10605 10605 10603 10603 10599 10596 10596 10588 10585 10589 10590 10592 10593 10591 10596 10602 10606 10606 10602 10600 10597 10596 10599 10596 10593 10594 10591 10587 10585 10582 10580 10575 10573 10574 10575 10576 10574 10573 10573 10571 10569 10568 10567 10567 10566 10564 10564 10563 10563 10563 10562 10563 10563 10563 10563 10562 10562 10561 10561 10562 10562 10562 10562 10562 10562 10562 10562 10562 10562 10562 10562 10562 10562 10562 10562 10562 10562
10612 10615 10617 10611 10606 10606 10605 10599 10595 10592 10588 10589 10592 10589 10586 10583 10574 10568 10570 10573 10573 10571 10576 10584 10586 10588 10588 10583 10586 10586 10583 10583 10578 10575 10576 10574 10572 10570 10567 10566 10561 10557 10556 10556 10557 10557 10556 10556 10555 10555 10553 10552 10552 10551 10550 10548 10547 10547 10547 10547 10547 10547 10547 10547 10546 10546 10546 10545 10545 10546 10546 10546 10546 10546 10546 10547 10547 10547 10547 10547 10547 10547 10548 10548 10548 10548
10596 10601 10606 10601 10593 10593 10594 10589 10584 10580 10575 10572 10575 10576 10572 10567 10563 10558 10554 10555 10552 10546 10556 10570 10571 10572 10570 10564 10570 10573 10566 10565 10564 10560 10557 10554 10553 10553 10550 10549 10547 10543 10539 10537 10537 10538 10539 10540 10539 10539 10538 10536 10535 10534 10533 10531 10530 10529 10530 10530 10531 10531 10532 10532 10531 10531 10530 10529 10528 10528 10529 10529 10529 10529 10529 10530 10531 10531 10532 10532 10532 10532 10532 10533 10533 10533
10579 10584 10590 10588 10580 10578 10580 10578 10572 10568 10564 10559 10558 10560 10558 10552 10551 10547 10539 10537 10537 10530 10535 10547 10550 10555 10555 10549 10553 10553 10547 10548 10547 10542 10539 10536 10533 10533 10533 10531 10530 10528 10524 10521 10519 10519 10520 10521 10521 10520 10520 10519 10518 10516 10514 10513 10512 10512 10512 10512 10513 10513 10514 10515 10515 10515 10515 10514 10513 10511 10511 10511 10511 10511 10512 10512 10513 10514 10515 10515 10515 10516 10516 10516 10516 10517
10562 10566 10573 10577 10570 10565 10566 10566 10562 10555 10551 10549 10546 10545 10544 10539 10536 10534 10525 10521 10522 10518 10519 10525 10527 10535 10541 10537 10535 10533 10531 10531 10527 10522 10520 10517 10514 10513 10513 10512 10511 10510 10509 10506 10503 10501 10500 10500 10500 10500 10501 10501 10501 10500 10497 10495 10494 10493 10493 10494 10494 10494 10495 10496 10497 10497 10497 10497 10497 10495 10495 10494 10494 10493 10493 10493 10493 10494 10495 10496 10497 10498 10498 10499 10499 10500
10548 10548 10556 10566 10562 10556 10555 10555 10551 10544 10539 10538 10536 10532 10529 10525 10521 10518 10513 10510 10508 10503 10502 10503 10506 10515 10523 10521 10518 10517 10513 10509 10505 10502 10500 10498 10496 10494 10492 10491 10491 10491 10491 10489 10486 10483 10480 10480 10480 10481 10481 10482 10482 10481 10480 10477 10475 10474 10474 10474 10475 10474 10475 10476 10476 10477 10477 10477 10477 10477 10476 10476 10476 10476 10476 10475 10474 10474 10474 10475 10476 10477 10478 10480 10481 10482
10540 10536 10540 10550 10552 10549 10546 10541 10537 10533 10529 10525 10522 10518 10513 10508 10505 10502 10499 10500 10496 10486 10483 10482 10482 10493 10502 10501 10500 10498 10491 10486 10483 10480 10479 10479 10477 10475 10473 10473 10472 10471 10470 10469 10467 10464 10463 10462 10461 10461 10461 10461 10461 10461 10459 10458 10457 10456 10455 10453 10453 10453 10454 10455 10456 10456 10456 10456 10456 10456 10456 10456 10456 10457 10457 10457 10456 10456 10456 10456 10456 10456 10457 10459 10460 10462
10533 10526 10526 10533 10537 10538 10537 10529 10522 10519 10517 10511 10505 10501 10497 10491 10488 10486 10484 10487 10483 10470 10466 10463 10459 10469 10481 10480 10476 10473 10468 10465 10462 10458 10456 10456 10456 10456 10456 10455 10454 10453 10451 10449 10449 10447 10445 10445 10443 10441 10440 10439 10439 10439 10437 10437 10437 10437 10435 10434 10433 10432 10432 10432 10433 10434 10434 10434 10434 10434 10434 10434 10435 10436 10436 10436 10436 10436 10437 10437 10437 10437 10437 10438 10439 10441
10520 10514 10512 10516 10519 10522 10524 10520 10510 10504 10501 10495 10489 10486 10482 10476 10473 10470 10467 10470 10468 10458 10455 10449 10440 10448 10460 10458 10452 10448 10445 10442 10439 10435 10432 10432 10433 10435 10435 10435 10435 10434 10433 10432 10432 10431 10428 10426 10425 10423 10421 10419 10417 10416 10415 10414 10414 10414 10415 10414 10413 10412 10411 10410 10410 10410 10410 10411 10411 10411 10411 10411 10412 10413 10414 10414 10414 10414 10415 10415 10416 10417 10417 10418 10418 10420
10506 10500 10497 10498 10501 10504 10507 10507 10500 10491 10483 10477 10472 10471 10468 10463 10460 10454 10450 10449 10444 10443 10446 10437 10424 10431 10441 10438 10433 10429 10424 10420 10416 10414 10412 10412 10413 10414 10415 10416 10415 10414 10414 10414 10413 10413 10410 10408 10406 10404 10402 10400 10397 10395 10393 10392 10391 10391 10392 10392 10392 10391 10390 10389 10388 10388 10387 10387 10387 10387 10388 10389 10389 10390 10391 10391 10392 10392 10392 10393 10393 10394 10395 10396 10397 10398
10491 10487 10483 10480 10481 10484 10489 10491 10484 10474 10467 10460 10456 10454 10452 10451 10447 10441 10437 10429 10419 10423 10428 10416 10407 10417 10422 10418 10415 10411 10404 10400 10396 10394 10393 10394 10396 10396 10395 10396 10395 10394 10393 10392 10392 10392 10391 10390 10388 10385 10383 10381 10378 10376 10374 10372 10371 10370 10371 10371 10371 10370 10369 10367 10366 10366 10365 10365 10364 10364 10364 10365 10366 10368 10369 10369 10369 10369 10369 10370 10370 10371 10371 10372 10374 10375
10475 10473 10470 10464 10460 10462 10469 10472 10466 10455 10447 10443 10441 10440 10437 10435 10434 10428 10423 10416 10407 10402 10399 10392 10393 10400 10400 10398 10398 10393 10385 10381 10379 10377 10377 10379 10380 10380 10378 10376 10375 10374 10372 10371 10370 10369 10369 10369 10368 10366 10364 10362 10360 10358 10356 10354 10351 10350 10350 10350 10350 10350 10349 10347 10346 10346 10345 10344 10343 10342 10341 10341 10342 10344 10346 10347 10348 10348 10347 10347 10347 10348 10348 10349 10350 10351
10457 10456 10456 10450 10443 10443 10446 10449 10447 10438 10427 10423 10425 10426 10425 10423 10420 10414 10409 10405 10396 10381 10374 10380 10383 10376 10376 10383 10383 10375 10364 10359 10360 10363 10364 10365 10364 10361 10359 10357 10355 10354 10352 10351 10349 10348 10347 10346 10345 10344 10344 10343 10341 10340 10338 10336 10334 10332 10330 10329 10329 10329 10328 10327 10327 10326 10325 10324 10323 10322 10321 10321 10320 10320 10321 10323 10324 10325 10325 10324 10324 10325 10325 10325 10326 10327
10438 10437 10440 10434 10425 10426 10427 10425 10424 10416 10407 10404 10406 10410 10414 10413 10409 10404 10397 10388 10376 10359 10356 10369 10370 10356 10357 10369 10368 10359 10349 10341 10341 10345 10347 10348 10348 10345 10342 10339 10336 10334 10332 10331 10329 10327 10325 10324 10322 10322 10321 10321 10321 10320 10318 10317 10315 10313 10312 10310 10309 10309 10308 10307 10306 10305 10304 10303 10303 10302 10302 10302 10301 10300 10299 10299 10299 10299 10300 10301 10302 10302 10303 10303 10303 10304
10418 10418 10423 10414 10406 10409 10409 10404 10401 10393 10387 10388 10390 10393 10398 10400 10398 10393 10381 10369 10357 10343 10341 10350 10350 10343 10346 10352 10347 10341 10337 10331 10328 10327 10327 10329 10331 10330 10327 10323 10318 10315 10313 10312 10309 10307 10305 10304 10302 10300 10299 10298 10298 10298 10297 10296 10295 10293 10291 10290 10289 10288 10288 10287 10286 10285 10284 10283 10283 10282 10282 10282 10282 10282 10281 10279 10278 10277 10276 10277 10278 10279 10280 10281 10281 10281
10401 10401 10402 10394 10388 10391 10391 10386 10378 10369 10367 10372 10377 10379 10383 10386 10383 10373 10360 10352 10342 10330 10329 10331 10327 10326 10334 10334 10325 10321 10323 10322 10318 10314 10312 10310 10310 10310 10309 10305 10301 10298 10295 10293 10291 10289 10287 10284 10282 10280 10279 10277 10277 10276 10276 10275 10274 10273 10271 10270 10269 10268 10267 10267 10267 10266 10265 10265 10264 10263 10263 10262 10262 10262 10262 10261 10260 10259 10257 10257 10256 10256 10257 10257 10258 10259
10386 10383 10382 10375 10368 10373 10379 10371 10356 10349 10349 10354 10363 10372 10373 10368 10360 10349 10341 10337 10328 10320 10318 10313 10303 10306 10315 10312 10305 10305 10308 10309 10307 10303 10298 10294 10290 10290 10288 10285 10283 10280 10277 10274 10271 10270 10268 10265 10262 10260 10258 10257 10256 10256 10257 10256 10255 10254 10252 10251 10250 10248 10247 10247 10247 10246 10246 10246 10246 10245 10244 10244 10244 10244 10243 10242 10241 10240 10240 10239 10239 10238 10237 10236 10236 10237
10370 10364 10363 10358 10347 10354 10366 10356 10339 10335 10334 10338 10354 10365 10357 10344 10335 10330 10327 10322 10315 10307 10302 10294 10289 10290 10291 10287 10287 10291 10292 10292 10291 10286 10281 10278 10274 10270 10268 10266 10264 10262 10260 10256 10252 10249 10247 10245 10243 10240 10237 10236 10236 10237 10239 10238 10238 10237 10235 10233 10231 10229 10228 10228 10228 10227 10227 10226 10226 10226 10225 10225 10225 10226 10225 10224 10223 10222 10222 10221 10221 10220 10219 10218 10218 10217
10355 10347 10345 10339 10328 10334 10347 10338 10323 10319 10319 10331 10349 10348 10333 10324 10320 10315 10311 10307 10301 10293 10283 10278 10277 10273 10265 10264 10270 10274 10273 10273 10272 10269 10265 10260 10254 10250 10249 10248 10247 10244 10241 10236 10232 10228 10226 10225 10224 10222 10219 10217 10217 10219 10220 10220 10220 10219 10218 10216 10214 10212 10210 10209 10209 10208 10208 10208 10206 10205 10204 10203 10204 10205 10205 10205 10204 10203 10203 10203 10202 10201 10200 10199 10200 10200
10342 10334 10327 10321 10313 10315 10325 10320 10305 10301 10310 10325 10333 10325 10314 10309 10304 10296 10293 10292 10288 10279 10271 10266 10261 10252 10246 10249 10254 10254 10254 10255 10255 10255 10251 10243 10235 10232 10232 10231 10229 10226 10222 10216 10213 10210 10207 10206 10204 10203 10201 10199 10200 10201 10201 10200 10201 10201 10200 10199 10198 10197 10194 10192 10191 10190 10189 10189 10188 10186 10184 10182 10182 10182 10183 10184 10183 10183 10183 10183 10183 10183 10181 10180 10181 10182
10325 10320 10311 10305 10298 10296 10302 10300 10288 10289 10304 10310 10306 10306 10303 10294 10284 10277 10274 10276 10274 10268 10263 10255 10244 10233 10230 10236 10240 10237 10236 10238 10240 10241 10236 10226 10217 10216 10217 10216 10212 10208 10205 10201 10198 10196 10192 10189 10185 10182 10182 10182 10183 10183 10182 10182 10182 10182 10182 10182 10181 10180 10178 10175 10174 10173 10170 10169 10168 10166 10163 10162 10162 10162 10163 10163 10162 10162 10163 10163 10162 10163 10163 10162 10163 10165
10307 10302 10295 10288 10283 10278 10279 10279 10274 10278 10290 10292 10286 10287 10285 10276 10270 10263 10256 10257 10260 10258 10252 10241 10228 10220 10217 10221 10225 10223 10221 10222 10223 10223 10217 10206 10200 10199 10199 10198 10194 10190 10189 10187 10185 10183 10177 10172 10168 10165 10165 10165 10165 10166 10166 10165 10165 10163 10162 10161 10160 10160 10159 10158 10157 10156 10154 10152 10150 10147 10144 10142 10142 10143 10144 10144 10143 10143 10144 10143 10143 10144 10144 10144 10145 10147
10289 10283 10277 10270 10266 10263 10259 10259 10260 10260 10268 10275 10272 10265 10259 10256 10256 10248 10237 10240 10248 10249 10240 10224 10213 10210 10209 10208 10210 10210 10208 10207 10208 10206 10197 10187 10185 10183 10179 10177 10175 10173 10173 10171 10169 10165 10159 10155 10152 10150 10149 10148 10148 10149 10150 10150 10148 10145 10143 10141 10140 10140 10140 10140 10139 10139 10137 10135 10133 10129 10127 10124 10123 10124 10126 10126 10125 10125 10125 10125 10124 10124 10124 10124 10126 10129
10272 10266 10261 10252 10248 10250 10244 10240 10243 10243 10247 10255 10253 10244 10238 10238 10238 10229 10219 10224 10236 10235 10224 10211 10203 10201 10200 10196 10195 10195 10194 10193 10194 10190 10180 10172 10171 10168 10164 10162 10160 10157 10155 10153 10150 10146 10142 10140 10138 10135 10133 10133 10133 10134 10134 10133 10131 10129 10127 10125 10123 10123 10122 10121 10121 10120 10119 10117 10115 10113 10111 10108 10106 10106 10107 10108 10107 10107 10107 10107 10106 10105 10105 10105 10107 10111
10257 10250 10246 10237 10233 10236 10230 10224 10225 10226 10229 10233 10230 10224 10221 10219 10218 10209 10200 10209 10221 10217 10208 10204 10198 10193 10189 10184 10181 10179 10177 10176 10177 10173 10163 10158 10157 10155 10152 10150 10146 10141 10138 10135 10132 10130 10128 10125 10122 10119 10118 10118 10118 10118 10118 10117 10116 10114 10113 10111 10109 10108 10107 10106 10105 10103 10101 10100 10098 10096 10094 10091 10090 10090 10089 10090 10090 10090 10090 10090 10089 10088 10088 10088 10089 10092
10246 10236 10229 10223 10221 10222 10216 10210 10210 10212 10215 10215 10208 10204 10204 10201 10196 10189 10184 10191 10201 10199 10197 10197 10189 10182 10178 10172 10167 10165 10162 10158 10157 10155 10149 10143 10141 10140 10138 10135 10132 10128 10123 10120 10118 10116 10113 10110 10108 10107 10105 10103 10102 10102 10102 10101 10100 10098 10097 10096 10094 10093 10093 10091 10090 10087 10085 10084 10082 10079 10077 10075 10074 10074 10073 10072 10073 10074 10073 10072 10072 10072 10072 10072 10073 10074
10233 10223 10214 10212 10211 10209 10202 10195 10196 10203 10209 10204 10189 10184 10186 10183 10177 10172 10169 10172 10178 10182 10185 10184 10176 10168 10163 10158 10154 10152 10148 10143 10140 10140 10137 10131 10126 10124 10121 10118 10117 10114 10110 10108 10107 10103 10098 10096 10095 10094 10091 10088 10087 10086 10085 10085 10084 10081 10080 10080 10079 10079 10078 10076 10075 10073 10071 10069 10066 10064 10062 10060 10058 10058 10057 10056 10056 10058 10059 10056 10055 10056 10056 10055 10057 10058
10217 10208 10205 10204 10199 10194 10189 10183 10183 10193 10200 10192 10175 10168 10169 10167 10163 10160 10156 10154 10158 10163 10166 10164 10160 10155 10148 10143 10140 10135 10132 10130 10126 10125 10124 10118 10113 10110 10107 10104 10102 10101 10100 10098 10095 10091 10087 10084 10082 10080 10077 10074 10072 10072 10071 10069 10068 10066 10064 10064 10064 10064 10063 10061 10059 10057 10055 10053 10051 10049 10047 10045 10043 10042 10043 10042 10042 10043 10044 10041 10038 10039 10040 10040 10041 10042
10199 10193 10195 10196 10187 10179 10179 10179 10174 10176 10182 10175 10160 10154 10154 10153 10151 10149 10145 10143 10143 10146 10145 10143 10143 10140 10134 10129 10124 10119 10116 10115 10111 10109 10108 10104 10101 10098 10095 10092 10090 10088 10087 10085 10081 10079 10076 10072 10070 10065 10062 10060 10058 10057 10057 10055 10054 10052 10050 10049 10050 10049 10048 10046 10044 10042 10040 10038 10036 10034 10031 10030 10029 10028 10028 10027 10027 10027 10028 10027 10024 10023 10023 10023 10024 10024
10184 10179 10178 10182 10179 10168 10167 10172 10166 10157 10160 10158 10147 10142 10140 10138 10139 10137 10132 10130 10131 10131 10130 10127 10126 10125 10119 10114 10111 10107 10103 10099 10094 10092 10091 10089 10088 10085 10082 10081 10079 10076 10074 10071 10069 10067 10063 10059 10055 10051 10047 10046 10044 10043 10042 10041 10040 10038 10036 10036 10036 10035 10034 10032 10029 10028 10026 10023 10020 10018 10017 10016 10015 10013 10012 10011 10011 10012 10012 10011 10010 10007 10005 10005 10006 10006
10171 10167 10161 10166 10172 10160 10153 10160 10153 10137 10137 10139 10132 10131 10130 10127 10128 10125 10117 10117 10120 10119 10116 10112 10109 10108 10104 10100 10099 10096 10091 10085 10080 10077 10076 10076 10075 10072 10070 10069 10066 10064 10061 10058 10056 10054 10050 10045 10041 10037 10034 10031 10029 10029 10028 10026 10025 10026 10024 10022 10022 10021 10020 10019 10016 10014 10011 10008 10006 10004 10003 10003 10000 9997 9996 9995 9996 9997 9996 9994 9993 9991 9989 9989 9989 9989
10160 10157 10149 10152 10161 10152 10143 10145 10135 10118 10120 10123 10115 10114 10114 10112 10115 10114 10107 10107 10110 10107 10102 10097 10094 10092 10089 10086 10085 10082 10077 10074 10069 10065 10063 10062 10060 10059 10057 10055 10053 10050 10047 10045 10043 10040 10036 10031 10028 10024 10021 10017 10015 10015 10014 10011 10012 10014 10013 10010 10007 10006 10006 10005 10003 10001 9996 9993 9991 9990 9989 9988 9985 9982 9982 9982 9981 9981 9980 9978 9977 9975 9973 9973 9973 9973
10147 10146 10144 10143 10144 10137 10133 10133 10119 10106 10110 10111 10101 10097 10096 10093 10097 10098 10094 10094 10095 10090 10087 10083 10079 10077 10075 10073 10071 10068 10064 10061 10057 10054 10052 10049 10047 10046 10044 10041 10038 10035 10032 10031 10029 10025 10021 10017 10014 10011 10008 10004 10002 10000 9999 9998 9999 10000 10000 9997 9994 9993 9993 9992 9990 9987 9982 9978 9978 9976 9974 9973 9971 9969 9969 9968 9967 9965 9964 9962 9961 9960 9958 9957 9957 9958
10133 10133 10137 10132 10125 10124 10124 10118 10105 10095 10097 10099 10092 10085 10081 10081 10083 10084 10081 10081 10078 10073 10070 10069 10064 10061 10059 10057 10055 10053 10050 10047 10044 10042 10040 10036 10034 10033 10031 10028 10025 10022 10019 10018 10015 10011 10008 10004 10001 9998 9995 9992 9989 9987 9985 9985 9986 9986 9985 9983 9981 9981 9981 9978 9975 9972 9968 9966 9964 9963 9961 9959 9958 9957 9956 9954 9952 9950 9948 9946 9945 9944 9943 9941 9942 9943
10120 10118 10121 10112 10107 10114 10113 10099 10088 10083 10085 10089 10085 10075 10069 10070 10072 10071 10068 10065 10062 10059 10057 10055 10053 10049 10045 10042 10040 10037 10034 10032 10031 10029 10027 10025 10022 10020 10016 10014 10011 10009 10008 10006 10002 9999 9995 9992 9988 9985 9982 9979 9977 9975 9973 9972 9972 9972 9971 9969 9969 9968 9967 9964 9961 9957 9954 9953 9951 9950 9949 9947 9946 9945 9943 9940 9937 9935 9933 9931 9930 9929 9927 9926 9925 9927
10105 10105 10107 10094 10089 10098 10097 10083 10073 10070 10074 10082 10080 10069 10062 10060 10060 10058 10053 10048 10046 10046 10043 10039 10038 10036 10033 10030 10027 10023 10020 10018 10016 10016 10014 10012 10010 10007 10004 10001 9999 9997 9995 9992 9989 9986 9983 9980 9977 9974 9971 9968 9966 9964 9963 9961 9959 9959 9958 9957 9956 9955 9953 9951 9947 9943 9940 9939 9938 9937 9937 9936 9934 9932 9930 9927 9924 9922 9919 9918 9917 9916 9914 9912 9910 9911
10088 10090 10091 10078 10071 10076 10078 10070 10061 10057 10065 10075 10073 10062 10055 10051 10047 10045 10041 10035 10033 10033 10029 10026 10025 10022 10019 10015 10012 10009 10006 10004 10003 10002 10001 10000 9997 9994 9992 9990 9987 9985 9982 9979 9976 9973 9969 9967 9965 9962 9960 9958 9956 9954 9952 9949 9948 9947 9945 9944 9943 9941 9939 9938 9935 9931 9928 9926 9925 9925 9925 9925 9923 9920 9917 9914 9913 9911 9908 9905 9902 9901 9900 9899 9898 9897